www.pogodaiklimat.ru

Погода и климат >> Архив погоды >> Россия >> Иркутская область >> Киренск


АРХИВ ПОГОДЫ в Киренске

Время (UTC), дата Ветер
(напр.,м/с)
 
Видим.   Явления Облачность Т
(С)
Тd
(С)
f
(%)
Тe
(С)
Тes
(С)
Комфортность P
(гПа)
Po
(гПа)
Тmin
(С)
Tmax
(С)
R
(мм)
R24
(мм)
S
(см)
09 11.06 СЗ 7-13
{15}
20 км слаб. ливневой дождь 10/10 600 м
[Cb cap]
+15.2 +12.4 83 +13 +13 993.5 963.7
12 11.06 ЮЗ 3
{13}
10 км слаб. ливневой дождь 10/10 600 м
[Cb cap]
+14.0 +12.4 90 +13 +13 998.9 968.8 +20.4 9
15 11.06 З 4
{11}
н/о слаб. ливневой дождь 10/8 600 м
[Cb cap Ac trans Ci fib]
+13.1 +10.1 82 +11 +11 1003.0 972.7
18 11.06 З 3 н/о {ливн. осадки} 8/6 600 м
[Cb cap Ac trans Ci fib]
+11.6 +7.5 76 +10 +10 1006.5 976.0
21 11.06 З 1 50 км 3/3 600 м
[Cb cap]
+9.6 +5.3 75 +9 +9 1010.1 979.2
00 12.06 З 2 50 км 4/3 600 м
[Cu hum Ci fib]
+12.8 +5.2 60 +12 +16 1012.2 981.5 +9.6 0.9
03 12.06 З 5 50 км 8/6 600 м
[Cb cap Ci fib]
+15.7 +2.6 41 +15 +17 1012.4 982.1
06 12.06 З 5-11
{11}
50 км 8/8 600 м
[Cb cap Ci fib]
+17.2 +1.7 35 +17 +18 1012.1 982.0
09 12.06 З 3
{11}
50 км 9/9 600 м
[Cb cap]
+15.6 +3.0 43 +15 +16 1013.0 982.6
12 12.06 Ю 3 50 км 8/6 600 м
[Cb cap Ac trans Ci fib]
+16.5 +3.1 41 +16 +17 1012.7 982.5 +18.1
15 12.06 Ю 1 н/о 10/4 1000 м
[Sc diur, vesp Ci fib]
+9.7 +5.5 75 +9 +9 1013.0 982.0
18 12.06 ЮВ 1 н/о 10/6 600 м
[Cb cap Ac trans Ci fib]
+10.4 +6.3 76 +10 +10 1012.8 981.9
21 12.06 ЮВ 1 50 км 10/8 600 м
[Cb cap Ac trans Ci fib]
+9.4 +6.9 84 +9 +9 1012.5 981.5
00 13.06 Ю 1 50 км 10/3 600 м
[Cb cap Ac trans Ci fib]
+15.7 +7.2 57 +16 +19 1010.9 980.7 +8.0
03 13.06 Ю 3 50 км 8/4 600 м
[Cb cap Ac trans Ci fib]
+21.1 +9.0 46 +22 +27 комфорт 1009.2 979.5
06 13.06 ЮЗ 3 50 км 10/6 600 м
[Cb cap Ac trans Ci fib]
+25.0 +9.1 36 +26 +28 жарко 1007.3 978.1
09 13.06 ЮЗ 3 50 км 10/6 600 м
[Cb cap Ac trans Ci fib]
+27.5 +8.8 31 +28 +29 жарко 1006.0 977.1
12 13.06 ЮВ 2 50 км 6/3 600 м
[Cb cap Ac trans Ci fib]
+25.3 +10.4 39 +26 +27 жарко 1006.0 976.9 +27.7
15 13.06 штиль 0 н/о 8/1 600 м
[Sc diur, vesp Ac trans Ci fib]
+14.6 +13.1 91 +14 +14 1007.2 977.0
18 13.06 З 1 н/о местами туман поземный 10/4 600 м
[Cb cap Ac trans Ci fib]
+12.4 +11.6 95 +12 +12 1007.9 977.4
21 13.06 С 1 50 км местами туман поземный 10/3 600 м
[Sc diur, vesp Ac trans Ci fib]
+11.0 +10.3 95 +11 +11 1007.6 977.0
00 14.06 С 1 20 км 10/0
[Ac trans Ci fib]
+16.0 +11.8 76 +17 +21 1006.7 976.6 +10.8
03 14.06 СЗ 2 50 км 10/0
[Cs]
+23.6 +12.0 48 +25 +36 комфорт 1004.5 975.3
06 14.06 Ю 2 50 км 10/3 600 м
[Cu hum Cs]
+27.0 +8.3 31 +27 +35 жарко 1002.6 973.7
09 14.06 Ю 1 50 км 10/4 600 м
[Sc diur, vesp Ac trans Ci fib]
+27.4 +9.1 32 +28 +30 жарко 1001.3 972.5
12 14.06 штиль 0 50 км 6/3 600 м
[Sc diur, vesp Ac trans Ci fib]
+27.5 +11.3 36 +28 +29 жарко 1000.9 972.1 +28.6
15 14.06 Ю 1 н/о 8/4 600 м
[Cb cap Ac trans Ci fib]
+15.7 +12.4 81 +16 +16 1002.1 972.2
18 14.06 штиль 0 н/о 10/6 600 м
[Cb cap Ac trans Ci fib]
+14.7 +12.7 88 +14 +14 1002.2 972.1
21 14.06 В 1 50 км 10/8 600 м
[Cb cap Ac As]
+14.9 +12.4 85 +15 +15 1002.5 972.5
00 15.06 штиль 0 20 км слаб. ливневой дождь 10/8 600 м
[Cb cap Ac As]
+17.0 +14.4 85 +17 +17 1003.8 973.9 +14.1 0.0
03 15.06 ЮВ 1 10 км слаб. ливневой дождь 10/10 600 м
[Cb cap]
+17.4 +15.7 90 +18 +18 1003.8 974.0
06 15.06 С 1 20 км слаб. ливневой дождь 10/8 300 м
[Cb cap Ac As]
+19.3 +16.4 83 +22 +23 комфорт 1003.0 973.4
09 15.06 СЗ 1 50 км {ливн. осадки} 10/8 600 м
[Cb cap Ac As]
+20.0 +16.5 80 +24 +24 комфорт 1002.2 972.7
12 15.06 С 1 50 км {ливн. осадки} 10/8 600 м
[Cb cap Ac trans Ci fib]
+19.8 +17.0 84 +23 +24 комфорт 1002.1 972.6 +21.3 2
15 15.06 ЮЗ 1 н/о слаб. ливневой дождь 10/10 600 м
[Cb cap]
+17.6 +16.5 93 +19 +19 1003.4 973.7
18 15.06 штиль 0 н/о слаб. ливневой дождь 10/10 600 м
[Cb cap]
+16.7 +15.9 95 +17 +17 1004.4 974.5
21 15.06 штиль 0 50 км местами туман поземный {ливн. осадки} 10/8 600 м
[Cb cap Ac As]
+16.1 +15.4 96 +16 +16 1004.5 974.5
00 16.06 штиль 0 4000 м слаб. ливневой дождь {туман} 10/8 600 м
[Cb cap Ac As]
+18.2 +16.8 92 +19 +19 1005.1 975.4 +15.9 1
03 16.06 С 1 50 км {ливн. осадки} 10/8 600 м
[Cb cap Ac trans Ci fib]
+21.3 +17.1 77 +25 +27 комфорт 1005.0 975.5
06 16.06 С 2 50 км {ливн. осадки} 10/5 600 м
[Cb cap Ac trans Ci fib]
+25.8 +16.9 58 +30 +33 душно 1003.9 974.9
09 16.06 СВ 2 50 км 10/4 600 м
[Cu med, cong Ac trans Ci fib]
+27.0 +15.4 49 +30 +32 душно 1002.8 974.0
12 16.06 Ю 2 50 км 10/4 600 м
[Cb cap Ac trans Cs]
+26.4 +16.0 53 +30 +30 душно 1002.8 973.9 +27.7 0.0
15 16.06 ЮВ 1 н/о гроза без осадков 10/6 600 м
[Cb cap Ac trans Cs]
+19.8 +15.4 76 +23 +23 комфорт 1004.2 974.6
18 16.06 штиль 0 н/о местами туман поземный {гроза} 10/4 600 м
[Cb cap Ac trans Cs]
+15.2 +14.3 94 +15 +15 1005.0 974.9
21 16.06 штиль 0 2000 м дымка 10/3 600 м
[Sc diur, vesp Ac trans Cs]
+14.4 +13.7 96 +14 +14 1005.5 975.3
00 17.06 С 1 50 км туман 10/0
[Ac trans Cs]
+19.7 +15.9 79 +23 +27 комфорт 1004.9 975.3 +13.4
03 17.06 С 1 50 км 10/0
[Ac trans Ci fib]
+26.0 +16.4 55 +29 +40 душно 1003.6 974.7
06 17.06 З 1 50 км 10/3 600 м
[Cb cap Ac trans Ci fib]
+29.0 +13.4 38 +31 +36 жарко 1002.5 973.8
09 17.06 СВ 1 50 км 10/4 600 м
[Cb cap Ac trans Ci fib]
+29.9 +11.4 32 +30 +33 жарко 1000.9 972.3
12 17.06 СВ 1 50 км 10/3 600 м
[Cb cap Ac trans Ci fib]
+29.3 +15.5 43 +32 +32 душно 1000.8 972.3 +31.5
15 17.06 В 3
{10}
н/о гроза, ливневой дождь 10/10 600 м
[Cb cap]
+20.4 +16.3 77 +24 +24 комфорт 1002.5 973.0
18 17.06 СВ 2
{13}
н/о слаб. ливневой дождь, в посл. час гроза 10/10 600 м
[Cb cap]
+17.7 +15.7 88 +18 +18 1004.8 975.0
21 17.06 ЮЗ 1 50 км {ливн. осадки} 10/3 600 м
[Cb cap Ac trans Ci fib]
+15.2 +14.2 94 +16 +16 1008.0 977.9
00 18.06 ЮЗ 1 50 км {ливн. осадки} 10/10 300 м
[Cb cap]
+18.0 +16.3 90 +19 +19 1010.2 980.3 +15.2 6
03 18.06 З 4 50 км {ливн. осадки} 10/10 600 м
[Cb cap]
+15.3 +12.1 81 +14 +14 1013.4 983.0
06 18.06 З 3 50 км {ливн. осадки} 10/8 600 м
[Cb cap Ac As]
+15.6 +11.0 74 +15 +16 1014.4 984.1

 

Местоположение метеостанции Киренск (Иркутская область, Россия): широта 57.77 долгота 108.00 высота над уровнем моря 258 м.

В архиве по умолчанию представлена погода в Киренске за последнюю неделю. Архивные данные за месяц целиком и за предыдущие месяцы, начиная с января 2011 года, Вы можете получить, выбрав интересующий диапазон дат из раскрывающегося списка и нажав кнопку "Ввод!".


*Определитесь, кто Вы:
робот инопланетянин человек

Внимание! Время в таблицах - всемирное. Для получения местного времени необходимо прибавить поправку, которая равна 8 ч.

Смотрите также архив погоды в соседних городах и на ближайших метеорологических станциях:

Погода в Токме (Иркутская область, Россия) (145 км)
Погода в Казачинске (Иркутская область, Россия) (163 км)
Погода в Усть-Куте (Иркутская область, Россия) (171 км)
Погода в Максимово (Иркутская область, Россия) (200 км)
Погода в Ике (Иркутская область, Россия) (201 км)
Погода в Даване (Бурятия, Россия) (230 км)
Погода в Орлинге (Иркутская область, Россия) (233 км)
Погода в Нижнеангарске (Бурятия, Россия) (239 км)
Погода в Преображенке (Иркутская область, Россия) (254 км)
Погода в Новой Игирме (Иркутская область, Россия) (256 км)

Пояснения к столбцам:

Ветер - указаны скорость ветра в м/с - средняя за 10 мин, порывы в срок и между сроками (в фигурных скобках) и направление, откуда дует ветер: С - северный, СВ - северо-восточный, В - восточный, ЮВ - юго-восточный, Ю - южный, ЮЗ - юго-западный, З - западный, СЗ - северо-западный.
Видимость - горизонтальная дальность видимости в метрах или километрах. При видимости от 1 до 10 км при отсутствии осадков обычно наблюдается дымка, при ухудшении видимости до 1 км и менее - туман. В сухую погоду видимость может ухудшаться дымом, пылью или мглою.
Явления - указаны атмосферные явления, наблюдавшиеся в срок или в последний час перед сроком; фигурными скобками обозначены явления, наблюдавшиеся между сроками (за 1-3 часа до срока); квадратными скобками обозначены град или гололедные отложения с указанием их диаметра в мм.
Облачность - указаны через наклонную черту общая и нижняя облачность в баллах и высота нижней границы облаков в метрах; квадратными скобками обозначены формы облаков: Ci - перистые, Cs - перисто-слоистые, Cc - перисто-кучевые, Ac - высококучевые, As - высокослоистые, Sc - слоисто-кучевые, Ns - слоисто-дождевые, Cu - кучевые, Cb - кучево-дождевые. Подробнее классификацию облаков см. в Атласе облаков (PDF).
T - Температура воздуха - температура, измеренная на высоте 2 м над землей.
Td - Температура точки росы - температура, при понижении до которой содержащийся в воздухе водяной пар достигнет насыщения.
f - Относительная влажность воздуха - влажноcть воздуха, измеренная на высоте 2 м над землей.
Te - Эффективная температура - температура, которую ощущает одетый по сезону человек в тени. Характеристика душности погоды. При расчете учитывается влияние влажности воздуха и скорости ветра на теплоощущения человека.
Tes - Эффективная температура на солнце - температура, которую ощущает человек, с поправкой на солнечный нагрев. Характеристика знойности погоды. Зависит от высоты солнца над горизонтом, облачности и скорости ветра. Ночью, в пасмурную погоду, а также при ветре 12 м/с и более поправка равна нулю.
P - Атмосферное давление - приведенное к уровню моря атмосферное давление.
Po - Атмосферное давление - измеренное на уровне метеостанции атмосферное давление.
Tmin - Минимальная температура - минимум температуры воздуха на высоте 2 м над землей.
Tmax - Максимальная температура - максимум температуры воздуха на высоте 2 м над землей.
R - Количество осадков - Количество выпавших осадков за период времени, мм. При наведении курсора мыши на число - период времени, за который выпало указанное количество осадков.
R24 - Количество осадков - Количество выпавших осадков за 24 часа, мм.
S - Снежный покров - Высота снежного покрова, см. При наведении курсора мыши на число - состояние снежного покрова и степень покрытия местности в баллах.